Location: San Antonio
(29.4240°N, 98.4930°W)
Time: 17:28:47
(UTC-05:00)

ZACube-1 - Pass Details

Date: 03 August 2024
Orbit: 562 x 628 km, 97.7° (Epoch: 14 September)

Event Time Altitude Azimuth Distance (km) Brightness Sun altitude
Rises 05:29:53 0° 345° (NNW) 2,893 ? -17.5°
Reaches altitude 10° 05:33:09 10° 319° (NW) 1,996 ? -16.9°
Enters shadow 05:34:56 13° 294° (WNW) 1,802 ? -16.6°
